Terminal Aerodrome Forecast
Issued by NWS Corpus Christi, TX

Home | Current Version | Previous Version | Text Only | Print | Product List | Glossary On
Versions: 1 2 3 4 5 6 7 8 9 10 11 12 13 14 15 16 17 18 19 20 21 22
000
FTUS44 KCRP 160500
TAFCRP
TAF
KCRP 160540Z 1606/1706 05008KT P6SM SCT025 BKN150
     FM160700 05005KT P6SM VCSH SCT015 OVC100
      TEMPO 1609/1612 SHRA BKN015
     FM161200 05007KT P6SM VCSH SCT020
      TEMPO 1614/1618 VRB15G25KT 5SM TSRA OVC015CB
     FM161800 11010KT P6SM VCTS BKN035CB
      TEMPO 1618/1622 2SM +TSRA BKN025CB
     FM162200 13012G18KT P6SM VCTS BKN035CB
     FM170200 13008KT P6SM SCT030=

USA.gov is the U.S. government's official web portal to all federal, state and local government web resources and services.